Regional Weather Roundup
Issued by NWS Newport/Morehead, NC

Current Version | Previous Version | Graphics & Text | Print | Product List | Glossary Off
Versions: 1 2 3 4 5 6 7 8 9 10 11 12 13 14 15 16 17 18 19 20 21 22 23 24 25 26 27 28 29 30 31 32 33 34 35 36 37 38 39 40 41 42 43 44 45 46 47 48 49 50

000
ASUS42 KMHX 301810
RWRMHX
WEATHER ROUNDUP FOR EASTERN NORTH CAROLINA
NATIONAL WEATHER SERVICE NEWPORT/MOREHEAD CITY NC
200 PM EDT WED JUL 30 2014

NOTE: "FAIR" INDICATES FEW OR NO CLOUDS BELOW 12,000 FEET
WITH NO SIGNIFICANT WEATHER AND/OR OBSTRUCTIONS TO VISIBILITY

NCZ015>017-031-032-045>047-102-103-301900-
NORTH COAST

CITY           SKY/WX    TMP DP  RH WIND       PRES   REMARKS
EDENTON        PTSUNNY   79  64  59 S7        30.07F
ELIZABETH CITY FAIR      80  61  52 CALM      30.07F
KITTY HAWK     FAIR      78  59  51 N7        30.07S
MANTEO         NOT AVBL

$$

NCZ045>047-081-094-103-104-301900-
CENTRAL COAST

CITY           SKY/WX    TMP DP  RH WIND       PRES   REMARKS
FRISCO         FAIR      82  62  50 N8G18     30.06S
SWANQUARTER      N/A     81 N/A N/A N3G12     30.03S

$$

NCZ095-097-098-100-101-301900-
SOUTHERN COAST

CITY           SKY/WX    TMP DP  RH WIND       PRES   REMARKS
BEAUFORT       FAIR      82  65  56 E9        30.05F
CEDAR ISLAND     N/A     79 N/A N/A NE12      30.09F
JACKSONVILLE   FAIR      84  61  45 SE6       30.04F
NEWPORT        NOT AVBL
PINEY ISLAND   FAIR      81  65  58 NE10      30.06S
WILMINGTON     FAIR      84  65  52 E10G18    30.05S


$$

NCZ011>013-027>030-043-044-078>080-089-090>093-098-301900-
COASTAL PLAIN

CITY           SKY/WX    TMP DP  RH WIND       PRES   REMARKS
AHOSKIE        FAIR      77  59  53 CALM      30.08F
CLINTON        FAIR      84  66  53 NE3       30.06S
ELIZABETHTOWN  PTSUNNY   83  61  46 E3        30.05S
GOLDSBORO      FAIR      81  66  60 VRB2      30.04F
GREENVILLE     FAIR      81  63  54 E5        30.08F
HAVELOCK       FAIR      82  63  52 NE13      30.07S
KENANSVILLE    FAIR      82  61  48 E3        30.07S
KINSTON        FAIR      82  63  51 SE6       30.07F
NEW BERN       FAIR      85  59  41 VRB6      30.07S
RICHLANDS      FAIR      84  61  45 N8        30.05F
ROANOKE RAPIDS NOT AVBL
ROCKY MOUNT    PTSUNNY   81  61  50 CALM      30.08F
WASHINGTON     FAIR      80  61  52 CALM      30.07F
WHITEVILLE     NOT AVBL

$$

AMZ130-135-150-152-154-156-158-170-250-252-270-ANZ085-086-088-633-658-670-301900-
MARINE OBSERVATIONS

STATION/POSITION TIME  TEMP    WIND        PRES    WAVE   SWELL
                       AIR SEA DIR/SP/G            HT/PER HT/PER
                 (UTC) (F)     (DEG/KT/KT) (MB)    (FT/S) (FT/S)
CHESAPEAKE LIGHT NOT AVBL
BUOY 44014       1800   74 78  350/ 10/ 14 1017.8    2/ 8   2/ 8
DUCK             1800   74 76   10/  9/ 10 1017.7
2E DUCK          1800                        N/A     2/ 8
OREGON INLET     1800   77 77   30/  8/ 10 1018.1
BUOY 44095       1800      78                N/A     3/ 8
20E OREGON INLET NOT AVBL
HATTERAS CG      1800   78 79   30/  9/ 15 1018.3
DIAMOND BUOY     1800          VRB 14/ 17  1017.3    4/ 7   2/ 7
CAPE LOOKOUT     1700   78      50/ 14/ 17 1017.7
BEAUFORT LAB     1800   80 81  100/  8/ 12 1017.0
30 SE NEW RIVER  1800   79 81   50/ 14/ 17 1017.6    3/ 8   2/ 8
5 SE WRIGHTSVILL 1700   76 81   70/ 14/ 16   N/A
BUOY 41002       1742   79 81  200/ 14/ 17 1015.4    4/ 7   3/ 7
BUOY 41004       1800   82 84   50/ 14/ 16 1015.5    3/ 9   2/ 9

$$



USA.gov is the U.S. government's official web portal to all federal, state and local government web resources and services.